Location: Shenandoah County Park
(38.9356°N, 78.4524°W)
Time: 13:21:52
(UTC-05:00)

Vanguard 2 Rocket - Pass Details

Date: 04 December 2023
Orbit: 555 x 3309 km, 32.9° (Epoch: 02 March)

Event Time Altitude Azimuth Distance (km) Brightness Sun altitude
Rises 13:20:01 0° 218° (SW) 5,796 12.1 26.3°
Reaches altitude 10° 13:23:38 10° 212° (SSW) 5,114 12.4 26.0°
Maximum altitude 13:38:36 45° 146° (SSE) 3,886 10.8 24.9°
Drops below altitude 10° 13:56:53 10° 83° (E) 6,191 10.9 23.3°
Sets 14:01:46 0° 78° (ENE) 7,069 11.1 22.9°
